�������l�o���
Date,Time,MP-1(��Sv/h),MP-2(��Sv/h),MP-3(��Sv/h),MP-4(��Sv/h),MP-5(��Sv/h),MP-6(��Sv/h),MP-7(��Sv/h),����,����(m/s),���J
2022/05/11,00:00,0.151,0.140,0.222,0.216,0.220,0.120,0.078,�k�k��,2.4,��
2022/05/11,00:10,0.151,0.140,0.222,0.216,0.218,0.121,0.077,�k,2.3,��
2022/05/11,00:20,0.151,0.140,0.222,0.216,0.219,0.121,0.077,�k�k��,1.6,��
2022/05/11,00:30,0.151,0.140,0.222,0.216,0.220,0.120,0.077,�k�k��,1.7,��
2022/05/11,00:40,0.150,0.140,0.221,0.216,0.219,0.120,0.077,�k,3.1,��
2022/05/11,00:50,0.150,0.141,0.222,0.214,0.221,0.121,0.077,�k�k��,3.8,��
2022/05/11,01:00,0.152,0.140,0.222,0.216,0.220,0.120,0.077,�k�k��,4.2,��
2022/05/11,01:10,0.152,0.141,0.221,0.216,0.218,0.120,0.077,�k�k��,4.8,��
2022/05/11,01:20,0.151,0.141,0.221,0.216,0.219,0.119,0.077,�k�k��,4.7,��
2022/05/11,01:30,0.151,0.140,0.221,0.215,0.219,0.120,0.077,�k��,4.7,��
2022/05/11,01:40,0.151,0.141,0.222,0.214,0.220,0.121,0.077,�k��,5.1,��
2022/05/11,01:50,0.150,0.140,0.221,0.215,0.219,0.120,0.078,�k�k��,4.8,��
2022/05/11,02:00,0.151,0.140,0.221,0.215,0.219,0.121,0.077,�k�k��,5.3,��
2022/05/11,02:10,0.152,0.140,0.221,0.216,0.219,0.120,0.077,�k�k��,5.1,��
2022/05/11,02:20,0.151,0.141,0.221,0.215,0.220,0.121,0.077,�k�k��,5.2,��
2022/05/11,02:30,0.150,0.140,0.221,0.215,0.219,0.120,0.077,�k�k��,4.9,��
2022/05/11,02:40,0.152,0.140,0.220,0.216,0.219,0.120,0.076,�k�k��,4.7,��
2022/05/11,02:50,0.151,0.142,0.220,0.214,0.219,0.121,0.077,�k,5.1,��
2022/05/11,03:00,0.151,0.140,0.222,0.214,0.219,0.120,0.076,�k�k��,4.8,��
2022/05/11,03:10,0.152,0.140,0.220,0.215,0.218,0.121,0.077,�k�k��,6.2,��
2022/05/11,03:20,0.151,0.141,0.221,0.215,0.220,0.120,0.077,�k�k��,6.5,��
2022/05/11,03:30,0.151,0.140,0.222,0.214,0.218,0.121,0.077,�k�k��,6.5,��
2022/05/11,03:40,0.151,0.140,0.221,0.215,0.219,0.121,0.077,�k�k��,6.3,��
2022/05/11,03:50,0.151,0.141,0.220,0.216,0.221,0.121,0.078,�k�k��,6.0,��
2022/05/11,04:00,0.151,0.140,0.220,0.213,0.219,0.121,0.077,�k�k��,6.6,��
2022/05/11,04:10,0.152,0.141,0.221,0.215,0.220,0.121,0.077,�k�k��,6.4,��
2022/05/11,04:20,0.151,0.141,0.221,0.216,0.219,0.120,0.077,�k�k��,4.8,��
2022/05/11,04:30,0.152,0.140,0.221,0.214,0.219,0.120,0.077,�k�k��,4.0,��
2022/05/11,04:40,0.151,0.140,0.222,0.215,0.221,0.120,0.078,�k�k��,6.7,��
2022/05/11,04:50,0.151,0.140,0.221,0.216,0.220,0.121,0.077,�k�k��,6.1,��
2022/05/11,05:00,0.152,0.140,0.221,0.214,0.220,0.120,0.077,�k�k��,6.3,��
2022/05/11,05:10,0.151,0.141,0.222,0.216,0.219,0.121,0.078,�k�k��,5.4,��
2022/05/11,05:20,0.151,0.141,0.222,0.215,0.220,0.121,0.076,�k�k��,6.0,��
2022/05/11,05:30,0.152,0.140,0.221,0.215,0.221,0.120,0.077,�k�k��,6.2,��
2022/05/11,05:40,0.152,0.140,0.223,0.216,0.219,0.122,0.077,�k�k��,6.4,��
2022/05/11,05:50,0.151,0.141,0.221,0.215,0.221,0.120,0.077,�k�k��,6.0,��
2022/05/11,06:00,0.151,0.140,0.222,0.215,0.219,0.120,0.077,�k�k��,6.4,��
2022/05/11,06:10,0.152,0.141,0.221,0.216,0.222,0.121,0.077,�k�k��,6.2,��
2022/05/11,06:20,0.151,0.139,0.221,0.215,0.219,0.121,0.078,�k�k��,6.2,��
2022/05/11,06:30,0.152,0.141,0.221,0.216,0.221,0.121,0.078,�k�k��,6.1,��
2022/05/11,06:40,0.151,0.140,0.222,0.214,0.220,0.120,0.077,�k�k��,5.8,��
2022/05/11,06:50,0.151,0.141,0.221,0.215,0.220,0.121,0.078,�k�k��,6.3,��
2022/05/11,07:00,0.151,0.141,0.221,0.215,0.221,0.120,0.077,�k�k��,5.8,��
2022/05/11,07:10,0.151,0.140,0.221,0.215,0.220,0.121,0.077,�k�k��,5.4,��
2022/05/11,07:20,0.152,0.141,0.223,0.215,0.221,0.122,0.077,�k�k��,5.9,��
2022/05/11,07:30,0.151,0.140,0.221,0.214,0.219,0.121,0.077,�k�k��,5.5,��
2022/05/11,07:40,0.152,0.141,0.222,0.214,0.220,0.121,0.077,�k,4.2,��
2022/05/11,07:50,0.151,0.141,0.221,0.215,0.220,0.120,0.077,�k�k��,3.5,��
2022/05/11,08:00,0.152,0.140,0.221,0.215,0.220,0.121,0.077,�k�k��,3.4,��
2022/05/11,08:10,0.150,0.142,0.221,0.213,0.221,0.121,0.078,�k�k��,4.5,��
2022/05/11,08:20,0.152,0.140,0.223,0.216,0.219,0.120,0.078,�k�k��,4.4,��
2022/05/11,08:30,0.150,0.140,0.220,0.214,0.221,0.120,0.077,�k�k��,3.8,��
2022/05/11,08:40,0.152,0.140,0.222,0.215,0.218,0.121,0.077,�k�k��,3.1,��
2022/05/11,08:50,0.151,0.140,0.220,0.215,0.220,0.122,0.078,�k�k��,2.8,��
2022/05/11,09:00,0.152,0.141,0.222,0.214,0.221,0.120,0.077,�k,3.2,��
2022/05/11,09:10,0.152,0.141,0.220,0.216,0.219,0.121,0.078,�k�k��,3.3,��
2022/05/11,09:20,0.152,0.141,0.219,0.214,0.221,0.120,0.077,�k�k��,2.7,��
2022/05/11,09:30,0.151,0.140,0.220,0.215,0.218,0.121,0.076,�k�k��,2.9,��
2022/05/11,09:40,0.152,0.140,0.219,0.214,0.219,0.121,0.077,�k,2.0,��
2022/05/11,09:50,0.152,0.141,-,0.216,0.222,0.121,0.077,�k,2.5,��
2022/05/11,10:00,0.152,0.141,-,0.216,0.218,0.121,0.078,�k,2.4,��
2022/05/11,10:10,0.151,0.140,-,0.214,0.220,0.121,0.076,�k�k��,2.7,��
2022/05/11,10:20,0.151,0.140,-,0.215,0.221,0.120,0.077,�k�k��,2.7,��
2022/05/11,10:30,0.151,0.141,-,0.215,0.219,0.120,0.078,�k��,3.2,��
2022/05/11,10:40,0.151,0.141,-,0.214,0.219,0.120,0.078,�k��,3.7,��
2022/05/11,10:50,0.151,0.139,-,0.214,0.222,0.120,0.078,�k�k��,2.5,��
2022/05/11,11:00,0.151,0.141,-,0.215,0.219,0.120,0.077,�k�k��,3.4,��
2022/05/11,11:10,0.151,0.140,-,0.214,0.217,0.120,0.077,�k��,2.8,��
2022/05/11,11:20,0.152,0.140,-,0.215,0.220,0.120,0.077,�k��,2.9,��
2022/05/11,11:30,0.152,0.141,-,0.217,0.220,0.122,0.076,�k�k��,3.1,��
2022/05/11,11:40,0.150,0.140,-,0.214,0.218,0.121,0.077,�k��,2.7,��
2022/05/11,11:50,0.151,0.141,-,0.214,0.217,0.120,0.077,�k�k��,2.5,��
2022/05/11,12:00,0.151,0.142,-,0.217,0.223,0.121,0.077,���k��,3.0,��
2022/05/11,12:10,0.149,0.140,-,0.216,0.220,0.120,0.077,�k��,2.3,��
2022/05/11,12:20,0.151,0.141,-,0.214,0.219,0.121,0.078,���k��,1.6,��
2022/05/11,12:30,0.150,0.140,-,0.216,0.218,0.120,0.077,��,1.8,��
2022/05/11,12:40,0.150,0.141,-,0.215,0.222,0.121,0.077,��,1.1,��
2022/05/11,12:50,0.152,0.141,-,0.215,0.221,0.121,0.077,��,1.2,��
2022/05/11,13:00,0.151,0.140,-,0.217,0.219,0.121,0.078,��,1.4,��
2022/05/11,13:10,0.151,0.141,-,0.216,0.222,0.121,0.077,���쓌,1.0,��
2022/05/11,13:20,0.151,0.140,-,0.215,0.220,0.121,0.076,���쓌,1.2,��
2022/05/11,13:30,0.151,0.141,-,0.217,0.219,0.121,0.078,��,2.0,��
2022/05/11,13:40,0.152,0.139,-,0.215,0.221,0.121,0.077,���쓌,2.3,��
2022/05/11,13:50,0.151,0.141,-,0.214,0.219,0.122,0.077,�쓌,1.7,��
2022/05/11,14:00,0.152,0.140,-,0.217,0.220,0.121,0.077,�쓌,2.4,��
2022/05/11,14:10,0.152,0.140,-,0.215,0.223,0.121,0.077,���쓌,2.1,��
2022/05/11,14:20,0.151,0.141,-,0.215,0.220,0.122,0.077,���쓌,2.2,��
2022/05/11,14:30,0.152,0.141,-,0.216,0.217,0.121,0.077,�쓌,2.0,��
2022/05/11,14:40,0.152,0.141,-,0.215,0.222,0.121,0.077,�쓌,1.9,��
2022/05/11,14:50,0.150,0.142,-,0.215,0.220,0.121,0.077,�쓌,1.7,��
2022/05/11,15:00,0.151,0.140,-,0.217,0.218,0.120,0.077,�쓌,3.1,��
2022/05/11,15:10,0.152,0.141,-,0.216,0.221,0.121,0.078,���쓌,1.0,��
2022/05/11,15:20,0.151,0.140,-,0.216,0.220,0.121,0.077,�쓌,1.4,��
2022/05/11,15:30,0.153,0.140,-,0.217,0.219,0.121,0.077,�쓌,1.4,��
2022/05/11,15:40,0.151,0.141,-,0.216,0.222,0.121,0.077,�쓌,1.9,��
2022/05/11,15:50,0.151,0.140,-,0.218,0.220,0.121,0.078,�쓌,2.2,��
2022/05/11,16:00,0.153,0.141,-,0.216,0.217,0.120,0.077,��쓌,3.4,��
2022/05/11,16:10,0.151,0.141,-,0.218,0.220,0.122,0.077,��쓌,3.4,��
2022/05/11,16:20,0.150,0.141,-,0.215,0.219,0.121,0.077,��,2.8,��
2022/05/11,16:30,0.153,0.141,-,0.218,0.217,0.121,0.078,��쓌,3.3,��
2022/05/11,16:40,0.151,0.141,-,0.216,0.218,0.121,0.077,��쓌,4.2,��
2022/05/11,16:50,0.151,0.140,0.223,0.217,0.222,0.120,0.077,��쓌,4.5,��
2022/05/11,17:00,0.152,0.142,0.223,0.216,0.220,0.122,0.077,�쓌,4.6,��
2022/05/11,17:10,0.151,0.142,0.222,0.217,0.217,0.121,0.078,��쓌,4.6,��
2022/05/11,17:20,0.152,0.141,0.222,0.216,0.222,0.121,0.078,��쓌,5.3,��
2022/05/11,17:30,0.151,0.141,0.223,0.218,0.219,0.121,0.077,��쓌,5.7,��
2022/05/11,17:40,0.153,0.141,0.224,0.215,0.221,0.121,0.077,��쓌,6.2,��
2022/05/11,17:50,0.151,0.141,0.222,0.218,0.220,0.121,0.076,��쓌,5.7,��
2022/05/11,18:00,0.153,0.140,0.224,0.217,0.221,0.121,0.077,��쓌,6.3,��
2022/05/11,18:10,0.151,0.141,0.223,0.218,0.221,0.121,0.077,��쓌,5.8,��
2022/05/11,18:20,0.153,0.141,0.223,0.216,0.220,0.121,0.077,��쓌,6.1,��
2022/05/11,18:30,0.152,0.141,0.221,0.217,0.222,0.120,0.077,��쓌,4.7,��
2022/05/11,18:40,0.152,0.140,0.223,0.215,0.221,0.121,0.077,��쓌,5.4,��
2022/05/11,18:50,0.151,0.140,0.222,0.215,0.222,0.121,0.077,��,6.1,��
2022/05/11,19:00,0.153,0.140,0.223,0.216,0.221,0.121,0.077,��,5.8,��
2022/05/11,19:10,0.151,0.141,0.223,0.216,0.221,0.122,0.077,��,6.1,��
2022/05/11,19:20,0.153,0.142,0.222,0.218,0.223,0.121,0.077,��,5.8,��
2022/05/11,19:30,0.152,0.141,0.223,0.217,0.219,0.120,0.078,��,6.2,��
2022/05/11,19:40,0.152,0.142,0.222,0.216,0.222,0.122,0.077,��,6.2,��
2022/05/11,19:50,0.151,0.142,0.223,0.215,0.220,0.121,0.078,��,3.4,��
2022/05/11,20:00,0.152,0.141,0.223,0.218,0.222,0.122,0.078,��,5.5,��
2022/05/11,20:10,0.151,0.142,0.222,0.216,0.220,0.121,0.078,��,4.7,��
2022/05/11,20:20,0.152,0.141,0.223,0.216,0.221,0.121,0.078,��,5.6,��
2022/05/11,20:30,0.153,0.142,0.222,0.217,0.221,0.121,0.077,��,6.3,��
2022/05/11,20:40,0.152,0.142,0.222,0.216,0.221,0.121,0.077,��,7.2,��
2022/05/11,20:50,0.151,0.141,0.223,0.217,0.222,0.122,0.078,��,2.1,��
2022/05/11,21:00,0.152,0.142,0.222,0.217,0.220,0.122,0.077,��,6.3,��
2022/05/11,21:10,0.152,0.142,0.223,0.216,0.222,0.121,0.077,��,5.6,��
2022/05/11,21:20,0.151,0.142,0.222,0.217,0.220,0.121,0.078,��,7.0,��
2022/05/11,21:30,0.153,0.140,0.222,0.216,0.222,0.122,0.077,��,7.4,��
2022/05/11,21:40,0.153,0.141,0.223,0.217,0.221,0.121,0.078,��,7.2,��
2022/05/11,21:50,0.153,0.142,0.223,0.217,0.220,0.121,0.079,��,7.9,��
2022/05/11,22:00,0.153,0.142,0.223,0.217,0.221,0.121,0.078,��,6.8,��
2022/05/11,22:10,0.151,0.141,0.224,0.217,0.221,0.121,0.078,��,6.6,��
2022/05/11,22:20,0.153,0.141,0.224,0.216,0.221,0.121,0.078,��,6.5,��
2022/05/11,22:30,0.151,0.142,0.223,0.217,0.220,0.121,0.078,��,6.4,��
2022/05/11,22:40,0.152,0.141,0.223,0.215,0.223,0.122,0.077,��,7.3,��
2022/05/11,22:50,0.152,0.141,0.223,0.218,0.220,0.121,0.078,��,6.7,��
2022/05/11,23:00,0.152,0.141,0.222,0.216,0.222,0.122,0.077,��,7.2,��
2022/05/11,23:10,0.152,0.141,0.223,0.217,0.220,0.121,0.078,��쐼,7.0,��
2022/05/11,23:20,0.151,0.142,0.223,0.216,0.220,0.122,0.078,��,7.1,��
2022/05/11,23:30,0.152,0.141,0.222,0.216,0.219,0.121,0.077,��,7.2,��
2022/05/11,23:40,0.151,0.141,0.222,0.217,0.220,0.121,0.078,��,6.1,��
2022/05/11,23:50,0.153,0.142,0.221,0.216,0.222,0.122,0.077,��,5.9,��
